Wetbulb
55.80 54.85 54.15 53.51 53.17 53.57 54.13 54.93 56.00 57.39 58.24 59.58 61.24 61.99 63.65 65.15 67.87 68.69 69.45 70.05 70.13 71.14 72.05 70.83 71.17 70.10 66.90 66.28 62.93 61.62 58.63 57.20 55.36 54.56 55.35 56.21 57.38 55.92 56.20 55.55 54.54 55.13 54.85
53.51 52.69 52.18 51.54 51.24 51.81 53.50 54.38 55.97 55.99 56.93 57.66 59.11 61.06 61.85 63.72 66.33 67.47 67.66 67.90 69.02 69.44 69.37 68.48 65.48 64.57 64.08 63.09 59.63 57.70 54.31 52.45 53.70 53.67 53.49 54.01 53.87 56.61 55.44 54.32 54.03 54.58 55.54
51.92 50.61 50.54 49.70 49.79 50.19 51.31 52.87 54.27 54.64 55.03 56.59 57.79 59.41 60.95 62.36 64.35 67.05 67.53 67.78 68.77 68.99 67.78 64.39 62.14 62.15 59.83 59.59 57.71 55.61 52.37 52.35 51.49 51.92 51.23 52.34 54.38 54.27 53.08 54.66 56.21 57.01 55.71
50.70 49.30 48.36 49.62 50.67 51.34 51.19 50.91 51.05 51.95 53.20 55.65 57.90 59.38 60.98 62.68 64.51 65.86 67.16 67.40 67.70 64.97 63.49 61.82 60.18 59.16 58.69 57.07 53.56 53.63 52.73 51.25 51.06 48.53 48.05 52.55 52.01 53.07 52.84 51.91 51.63 54.17 53.68
48.95 47.75 48.43 49.98 49.77 49.58 50.17 51.90 53.43 53.77 54.06 56.21 58.79 61.12 62.65 64.37 65.39 65.78 61.21 61.53 58.30 55.52 54.55 53.12 53.38 52.97 50.92 50.92 50.04 49.57 52.09 48.81 48.63 48.36 47.32 49.48 51.82 49.99 50.18 51.37 50.58 52.29 53.96
45.78 46.28 47.69 48.51 48.29 49.38 51.52 51.14 53.37 57.01 57.28 58.05 60.25 61.53 62.22 62.70 51.60 52.79 56.72 52.89 51.87 50.11 48.90 48.88 49.32 49.59 48.82 48.07 47.92 47.52 48.53 49.03 48.62 48.74 49.04 48.73 49.73 50.62 51.24 49.79 50.21 48.46 47.45
44.67 45.43 45.92 46.96 47.62 49.18 48.50 48.61 49.18 49.47 50.31 51.24 52.10 52.76 53.71 52.38 48.76 49.63 49.74 50.18 48.66 47.57 47.21 47.03 46.35 46.81 45.51 44.69 44.50 45.44 46.20 46.89 47.03 52.20 49.95 49.73 49.98 50.50 49.68 48.76 49.38 48.35 48.27
43.45 43.99 45.65 46.05 46.19 46.17 46.17 46.01 45.75 46.31 45.80 46.36 47.16 48.11 48.27 48.80 47.10 47.32 47.40 48.08 47.07 46.49 45.96 45.26 44.67 44.72 45.59 45.72 45.42 46.50 46.86 47.22 48.55 50.09 50.71 49.83 49.82 49.71 49.80 50.47 50.94 51.95 53.32
42.41 43.26 44.27 43.86 43.33 44.01 43.36 43.73 44.13 43.76 43.48 44.01 44.30 44.64 44.56 44.77 44.81 44.73 45.50 44.78 43.93 43.53 44.44 45.23 45.13 44.54 42.69 43.56 46.23 46.35 46.59 45.55 43.56 44.62 45.61 44.54 44.04 43.43 44.75 50.13 49.04 47.62 45.89
41.67 43.02 43.36 42.78 42.97 41.98 42.33 42.32 43.28 42.73 42.20 42.33 41.97 42.81 43.85 42.92 42.82 43.07 44.08 43.27 40.89 40.83 42.05 41.84 42.05 41.26 40.61 41.42 48.74 48.18 47.30 47.87 50.19 48.95 48.61 46.06 44.89 46.29 44.35 50.94 49.50 45.29 46.41
41.00 42.42 42.48 42.60 42.29 42.42 42.37 42.53 41.84 41.25 41.49 41.27 41.37 42.17 42.41 42.53 41.91 41.63 42.05 41.96 40.87 39.96 40.86 40.45 40.69 40.36 39.95 40.29 42.65 47.24 46.60 46.16 48.72 51.98 53.42 53.03 53.36 53.40 51.78 51.30 51.40 48.61 47.24
40.93 40.53 40.69 41.36 41.95 42.23 41.56 41.51 41.46 40.95 40.53 40.19 40.04 40.01 40.98 41.67 41.81 40.90 40.66 40.83 41.74 40.27 39.85 40.48 39.96 38.51 38.61 39.40 43.49 39.64 41.60 41.96 52.00 52.03 51.70 51.24 50.97 50.87 51.07 52.13 52.54 51.24 51.22
39.29 38.90 39.32 40.32 40.69 41.29 40.38 39.76 39.58 39.59 39.13 39.23 39.52 38.88 38.98 40.48 41.20 40.85 40.48 40.84 41.80 41.83 42.16 40.27 38.51 38.27 39.26 41.71 41.13 41.80 46.75 51.43 51.20 50.74 50.30 50.34 50.95 51.80 54.30 53.37 53.88 53.57 52.80
37.76 38.67 39.50 39.39 39.39 39.63 39.24 39.68 39.19 38.23 38.46 38.09 37.80 37.12 36.45 38.15 38.92 39.99 40.43 41.06 41.32 42.43 41.66 42.63 42.48 43.62 43.60 46.02 48.04 48.86 50.58 50.71 50.70 50.29 50.32 51.13 52.26 52.10 51.17 51.78 50.07 49.71 48.22
39.05 39.54 38.80 38.19 37.26 36.35 36.93 37.86 36.73 37.38 37.89 35.56 35.97 36.72 35.59 36.66 38.02 39.56 40.88 43.52 44.38 43.25 45.14 45.64 46.18 46.35 46.63 47.77 49.08 49.75 49.84 50.57 49.82 50.59 50.37 50.26 50.35 50.23 50.07 50.25 48.98 47.15 45.27
37.59 38.70 38.60 38.25 38.25 37.60 36.17 35.14 36.75 37.03 37.22 37.06 37.37 37.84 38.23 36.88 36.74 36.91 36.75 36.38 36.43 39.35 45.15 44.45 44.24 44.61 44.60 45.49 46.48 47.90 49.09 48.31 49.61 50.02 49.65 49.50 48.58 48.11 48.02 48.03 47.14 43.58 40.75
38.75 39.85 39.88 39.96 40.01 39.52 38.71 37.58 35.16 36.33 36.69 36.22 35.85 35.71 35.76 35.92 36.10 36.44 36.91 37.25 37.60 42.24 44.27 43.97 43.79 44.14 44.20 44.74 45.30 46.71 46.98 48.81 49.93 49.36 49.14 48.39 48.05 47.97 46.67 46.93 45.80 44.06 40.78
41.82 41.11 41.62 41.74 42.10 41.46 40.46 39.49 38.86 36.59 35.40 36.56 36.53 37.19 35.52 35.88 36.31 36.55 36.70 38.56 43.82 43.55 44.40 44.05 43.68 44.12 44.17 44.29 45.11 46.01 47.43 47.87 48.15 48.37 48.10 47.29 47.29 46.23 45.83 45.96 44.59 42.28 40.58
44.16 44.29 44.14 43.25 41.73 41.28 40.23 39.43 39.37 38.26 37.24 37.68 39.28 38.90 38.53 36.63 37.31 37.97 39.57 44.38 43.32 43.29 43.79 43.78 44.32 44.43 44.39 44.59 45.03 46.29 47.37 46.95 46.58 46.60 46.61 46.21 46.70 46.19 45.28 45.30 44.74 37.06 37.04
43.34 39.77 41.36 42.84 42.21 41.72 41.75 41.09 40.39 40.23 40.36 40.99 41.62 42.03 43.39 42.55 43.61 43.68 44.57 44.12 43.76 43.63 43.86 43.88 44.22 44.37 44.26 44.15 44.47 45.62 46.89 46.62 46.40 45.82 45.92 46.68 47.55 46.55 44.71 43.38 42.01 39.79 38.49
43.78 44.37 37.11 44.52 43.92 43.16 42.15 41.30 41.56 41.10 40.02 40.34 41.07 40.38 31.18 43.43 43.11 43.12 43.18 43.48 43.46 43.63 43.68 43.93 43.93 43.99 43.60 43.05 43.47 44.48 45.76 46.52 45.98 45.79 45.76 46.37 46.37 44.49 43.99 41.85 39.49 39.27 38.61
43.30 44.26 44.47 43.98 43.69 42.49 41.51 40.92 39.99 40.27 40.01 40.47 41.52 41.72 34.40 44.14 43.67 43.44 43.41 43.54 44.05 44.38 44.70 44.57 43.91 43.50 42.94 42.13 42.87 43.35 43.79 44.51 45.09 46.16 46.58 45.49 44.85 43.64 40.70 38.96 38.71 38.93 38.74
43.53 43.79 44.49 44.08 42.97 38.67 41.55 42.15 41.94 42.27 42.65 42.92 43.03 43.23 43.51 43.49 43.63 43.59 43.62 44.12 44.32 44.13 44.08 43.52 42.83 41.91 42.12 42.75 43.86 42.81 41.73 42.46 44.47 45.95 45.93 44.44 42.98 39.80 39.07 38.23 37.64 37.90 37.73
44.11 44.05 44.13 44.47 44.40 43.82 43.21 42.70 42.32 39.72 42.92 43.05 43.21 43.26 43.37 43.64 43.65 43.86 43.99 44.17 44.08 43.84 43.91 43.30 42.20 40.80 40.89 42.61 43.20 43.27 41.94 40.01 44.15 44.00 45.69 42.90 42.03 40.21 40.15 38.37 37.55 37.22 37.58
45.04 44.89 44.17 43.43 42.63 42.27 42.60 42.77 42.95 42.81 42.63 42.39 42.42 42.74 43.40 43.79 43.68 43.88 44.16 44.17 43.72 43.23 43.01 42.74 42.09 40.93 40.57 41.39 41.78 41.82 35.57 31.74 39.02 34.24 45.93 44.31 43.89 41.59 38.58 37.27 36.86 37.18 39.03
44.60 44.91 44.64 44.74 44.04 43.65 42.89 42.57 42.27 42.22 41.85 42.00 42.45 42.92 43.15 43.60 43.81 44.03 44.13 44.06 43.50 42.94 42.17 41.34 40.76 40.66 40.57 41.04 39.68 33.95 32.36 32.39 37.03 32.80 45.10 44.32 41.35 38.02 37.87 36.59 36.86 37.93 39.01
MSLP
1007.97 1007.90 1007.52 1007.15 1006.76 1006.26 1005.64 1004.94 1004.34 1003.77 1003.37 1002.84 1002.15 1001.59 1000.96 1000.49 999.96 999.79 999.77 999.76 1000.02 1000.27 1000.34 1000.88 1001.39 1001.97 1002.60 1003.43 1004.20 1004.41 1005.25 1006.10 1007.16 1007.60 1007.26 1007.96 1007.91 1008.18 1008.63 1008.78 1008.82 1008.30 1007.72
1008.18 1007.81 1007.31 1006.91 1006.37 1005.60 1004.75 1004.04 1003.50 1002.96 1002.46 1002.00 1001.48 1000.78 1000.26 999.86 999.44 998.94 999.04 999.22 999.48 999.73 1000.16 1000.94 1002.06 1002.74 1003.22 1003.89 1004.40 1004.97 1005.36 1005.45 1006.57 1007.69 1007.78 1007.58 1007.88 1007.88 1008.68 1008.92 1008.41 1007.68 1007.30
1008.04 1007.62 1007.02 1006.40 1005.69 1004.80 1003.96 1003.22 1002.60 1002.06 1001.47 1000.96 1000.45 999.98 999.49 999.11 998.51 998.21 998.31 998.79 999.14 999.50 1000.29 1001.22 1002.39 1003.29 1003.86 1004.30 1004.83 1005.42 1005.70 1006.26 1006.71 1007.10 1008.03 1008.15 1007.33 1007.74 1008.55 1008.26 1007.65 1007.03 1006.82
1007.93 1007.37 1006.58 1005.62 1004.69 1003.83 1003.07 1002.25 1001.49 1000.83 1000.26 999.85 999.35 999.01 998.66 998.34 997.58 997.64 997.91 998.64 999.35 1000.15 1000.80 1001.82 1002.84 1003.83 1004.46 1004.98 1005.39 1005.88 1006.07 1006.54 1006.82 1006.95 1007.67 1007.96 1008.01 1008.05 1008.49 1007.80 1007.25 1006.79 1006.76
1007.78 1007.01 1006.00 1005.01 1004.23 1003.23 1002.08 1000.97 999.70 998.77 998.71 998.63 998.24 997.81 997.50 997.25 997.02 997.58 998.37 999.53 1000.49 1001.29 1002.42 1003.35 1004.23 1005.10 1005.79 1005.94 1006.33 1007.04 1007.07 1007.30 1007.43 1007.38 1007.11 1007.21 1008.11 1008.52 1008.33 1008.02 1007.50 1007.02 1006.74
1007.79 1006.78 1005.77 1004.69 1003.68 1002.50 1001.50 1000.57 999.08 997.70 997.71 997.66 997.28 997.24 996.96 997.34 997.99 998.64 999.32 1000.54 1001.59 1002.61 1003.80 1004.98 1005.63 1006.20 1006.79 1006.84 1007.39 1008.29 1007.99 1008.63 1008.40 1007.30 1007.14 1007.32 1008.62 1008.59 1008.47 1008.42 1007.59 1007.76 1006.85
1007.63 1006.58 1005.56 1004.45 1003.30 1002.33 1001.66 1000.86 999.93 999.16 998.76 998.26 998.04 997.96 998.39 998.95 998.99 999.84 1000.45 1001.87 1002.97 1004.15 1005.06 1005.84 1006.69 1007.53 1007.98 1008.09 1008.23 1009.31 1009.25 1008.72 1008.90 1008.14 1008.11 1008.56 1008.87 1009.07 1009.09 1008.69 1008.32 1007.98 1007.10
1007.68 1006.64 1005.56 1004.54 1003.70 1002.91 1002.20 1001.49 1000.96 1000.63 1000.14 999.87 999.75 999.70 1000.10 1001.06 1000.88 1001.05 1001.95 1003.13 1004.36 1005.52 1006.28 1006.97 1007.63 1008.56 1009.01 1009.38 1009.49 1009.63 1009.82 1009.30 1009.26 1008.63 1008.90 1009.58 1009.78 1009.54 1009.46 1008.82 1008.09 1007.39 1006.37
1007.80 1006.90 1005.98 1005.26 1004.38 1003.71 1003.03 1002.60 1002.32 1001.92 1001.56 1001.54 1001.70 1001.57 1001.96 1003.05 1003.24 1003.09 1003.28 1004.76 1005.79 1006.88 1007.70 1008.20 1008.74 1009.12 1009.51 1009.77 1009.64 1009.64 1009.71 1009.44 1009.19 1009.25 1009.33 1009.73 1009.69 1009.90 1009.74 1008.59 1008.02 1007.51 1007.26
1008.27 1007.44 1006.62 1006.03 1005.24 1004.66 1004.39 1003.92 1003.86 1003.35 1003.18 1002.62 1003.24 1003.79 1004.24 1004.73 1005.07 1005.03 1005.28 1006.06 1007.09 1008.22 1008.97 1009.48 1009.86 1010.16 1009.89 1009.32 1009.68 1009.44 1009.15 1008.86 1008.54 1008.96 1009.40 1009.52 1009.64 1009.76 1009.59 1009.12 1008.38 1008.36 1007.58
1008.90 1008.09 1007.34 1006.83 1006.26 1005.82 1005.50 1005.34 1004.98 1004.82 1004.45 1004.80 1004.82 1005.76 1006.10 1006.60 1006.91 1006.92 1007.28 1007.68 1008.46 1009.22 1009.99 1010.53 1011.01 1010.42 1010.19 1010.14 1009.96 1009.35 1009.49 1009.28 1008.41 1008.08 1007.68 1007.82 1008.01 1008.36 1008.62 1008.67 1008.64 1008.46 1008.00
1009.50 1008.92 1008.25 1007.80 1007.19 1007.02 1006.63 1006.49 1006.33 1006.12 1005.98 1006.30 1006.55 1007.24 1007.93 1008.46 1008.63 1008.84 1009.15 1009.54 1010.02 1010.25 1011.04 1011.20 1011.29 1010.50 1010.47 1010.32 1010.01 1009.78 1009.46 1009.10 1007.78 1007.57 1007.74 1007.89 1007.96 1008.06 1008.51 1008.35 1008.32 1008.38 1008.24
1010.26 1009.76 1009.33 1008.79 1008.32 1008.12 1007.78 1007.67 1007.52 1007.58 1007.57 1007.90 1008.10 1008.49 1009.61 1010.22 1010.60 1010.57 1010.70 1011.06 1010.99 1011.42 1011.04 1010.99 1010.88 1010.76 1010.46 1010.32 1010.03 1009.55 1008.92 1008.35 1008.16 1008.08 1008.00 1007.94 1008.11 1008.20 1007.99 1007.98 1007.81 1007.77 1007.74
1011.08 1010.67 1010.32 1009.93 1009.71 1009.56 1009.17 1009.18 1009.14 1009.13 1009.22 1009.62 1010.02 1010.40 1011.03 1011.72 1011.70 1012.43 1012.20 1011.79 1011.42 1011.34 1011.26 1011.11 1010.81 1010.41 1010.23 1009.98 1009.66 1009.51 1009.36 1009.20 1008.79 1008.39 1008.26 1008.24 1008.02 1007.99 1008.00 1008.30 1008.17 1008.10 1008.05
1011.76 1011.54 1011.38 1011.33 1011.14 1011.02 1010.82 1010.93 1010.95 1011.16 1011.28 1011.56 1011.84 1011.89 1012.39 1012.86 1012.75 1012.48 1011.90 1011.69 1011.32 1011.07 1010.89 1010.63 1010.18 1010.05 1010.00 1009.87 1009.85 1009.94 1009.91 1009.43 1009.09 1008.91 1008.88 1008.66 1008.64 1008.68 1008.70 1008.91 1008.70 1009.07 1008.66
1012.66 1012.52 1012.42 1012.30 1012.22 1012.28 1012.40 1012.78 1012.86 1012.98 1013.12 1013.24 1013.49 1013.22 1013.59 1013.47 1013.19 1012.94 1012.75 1012.28 1011.71 1011.12 1010.84 1010.77 1010.76 1010.74 1010.52 1010.43 1010.36 1010.23 1010.19 1010.13 1009.90 1009.68 1009.64 1009.61 1009.72 1009.75 1009.61 1009.42 1009.50 1009.86 1009.91
1013.64 1013.39 1013.28 1013.14 1013.16 1013.30 1013.40 1013.57 1014.09 1014.94 1014.84 1014.84 1014.81 1014.53 1014.45 1014.22 1013.82 1013.32 1012.75 1012.16 1011.66 1011.26 1011.19 1011.43 1011.42 1011.39 1011.25 1011.14 1010.99 1010.96 1011.02 1011.00 1010.92 1010.50 1010.36 1010.50 1010.52 1010.24 1010.18 1009.92 1010.10 1010.10 1010.25
1014.45 1014.27 1014.16 1014.18 1014.28 1014.50 1014.76 1015.01 1015.27 1015.34 1015.54 1015.73 1015.66 1015.26 1014.94 1014.52 1014.08 1013.66 1013.14 1012.61 1012.22 1012.18 1012.21 1012.28 1012.29 1012.22 1012.08 1011.79 1011.66 1011.79 1011.97 1011.97 1011.68 1011.39 1011.27 1011.43 1011.18 1010.86 1010.60 1010.56 1010.66 1010.75 1010.76
1015.12 1014.97 1014.95 1015.16 1015.43 1015.61 1015.76 1015.96 1015.88 1015.65 1015.64 1015.61 1015.49 1015.31 1014.90 1014.50 1014.09 1013.67 1013.26 1012.98 1013.06 1013.10 1013.22 1013.26 1013.20 1013.08 1012.79 1012.75 1012.53 1012.43 1012.72 1012.78 1012.77 1012.52 1012.28 1012.03 1011.54 1011.24 1011.13 1011.10 1011.10 1011.21 1011.47
1016.05 1015.88 1015.52 1015.64 1015.66 1015.50 1015.39 1015.26 1015.43 1015.37 1015.26 1015.10 1015.00 1014.86 1014.78 1014.48 1014.36 1014.39 1014.28 1014.14 1014.13 1014.14 1014.13 1014.08 1014.08 1014.07 1014.03 1013.82 1013.60 1013.35 1013.20 1013.21 1013.36 1013.38 1013.14 1012.35 1011.91 1011.72 1011.77 1012.05 1012.08 1012.04 1011.93
1016.15 1015.83 1015.66 1015.22 1015.25 1015.38 1015.56 1015.63 1015.62 1015.97 1016.02 1016.08 1016.08 1016.04 1015.90 1015.45 1015.53 1015.54 1015.58 1015.58 1015.38 1015.22 1015.12 1015.00 1015.01 1015.02 1015.08 1015.12 1014.95 1014.55 1014.03 1013.83 1014.17 1013.89 1013.47 1013.12 1012.65 1012.66 1012.73 1012.98 1012.92 1012.70 1012.45
1016.58 1015.93 1015.58 1015.62 1015.89 1016.16 1016.38 1016.63 1016.76 1016.74 1016.76 1016.71 1016.70 1016.73 1016.46 1016.30 1016.46 1016.53 1016.64 1016.63 1016.48 1016.44 1016.28 1016.13 1016.23 1016.39 1016.42 1016.27 1016.16 1015.89 1015.46 1014.96 1014.92 1014.53 1013.95 1013.97 1013.80 1013.74 1013.93 1013.76 1013.50 1013.16 1012.79
1017.08 1016.35 1015.94 1016.13 1016.32 1016.38 1016.42 1016.52 1016.60 1016.60 1016.68 1016.86 1016.99 1017.06 1017.18 1017.28 1017.41 1017.47 1017.54 1017.54 1017.50 1017.59 1017.81 1017.91 1017.86 1017.82 1017.60 1017.43 1017.08 1017.03 1016.89 1016.55 1015.82 1015.09 1014.73 1015.00 1014.92 1014.95 1014.65 1014.30 1014.08 1013.71 1013.21
1017.12 1016.60 1016.35 1016.22 1016.26 1016.44 1016.71 1017.04 1017.34 1017.48 1017.59 1017.78 1017.96 1018.05 1018.13 1018.27 1018.41 1018.55 1018.51 1018.63 1018.73 1018.82 1018.88 1018.93 1019.05 1019.15 1018.89 1018.48 1018.19 1017.97 1018.03 1017.90 1016.84 1016.11 1015.75 1015.92 1015.62 1015.38 1015.14 1014.94 1014.68 1014.28 1013.72
1017.16 1016.99 1017.02 1017.19 1017.44 1017.50 1017.50 1017.64 1017.85 1018.08 1018.30 1018.51 1018.71 1018.99 1019.20 1019.32 1019.35 1019.46 1019.60 1019.72 1019.85 1019.91 1019.88 1019.80 1019.83 1019.94 1020.02 1019.98 1019.48 1019.15 1019.06 1018.52 1017.68 1017.08 1016.36 1016.20 1015.95 1016.02 1016.08 1015.84 1015.48 1014.87 1014.15
1017.77 1017.51 1017.42 1017.48 1017.66 1017.85 1018.15 1018.42 1018.68 1018.98 1019.31 1019.62 1019.81 1019.98 1020.10 1020.10 1020.27 1020.40 1020.46 1020.39 1020.29 1020.59 1020.93 1021.25 1021.28 1021.09 1021.00 1020.85 1020.73 1020.44 1019.94 1019.20 1018.32 1017.86 1017.11 1016.94 1017.04 1017.19 1016.94 1016.68 1016.18 1015.50 1015.00
Wind_Speed
18 16 16 16 17 16 15 16 16 16 16 18 18 20 19 18 17 15 15 16 16 14 13 11 12 6 6 6 4 7 7 4 2 0 4 3 3 2 5 6 9 7 9
16 15 17 16 17 18 17 17 16 16 15 17 18 20 20 19 18 17 17 16 17 16 14 6 8 5 7 7 6 8 6 7 5 3 1 4 3 3 5 7 8 7 7
19 19 18 17 17 18 18 17 17 17 18 17 17 21 19 17 19 17 16 16 16 14 11 8 10 10 8 7 6 6 7 5 2 4 2 3 3 1 5 8 5 7 8
17 17 18 18 17 16 17 18 18 17 18 18 17 19 16 20 18 16 15 13 13 6 9 9 10 9 9 10 9 8 7 5 4 4 3 2 2 1 5 4 6 5 6
18 17 18 17 17 17 17 17 19 18 16 16 17 17 18 16 12 10 10 13 14 14 13 13 12 15 17 13 5 5 5 3 2 3 5 3 2 4 4 5 6 7 8
16 17 17 17 16 16 11 12 13 3 9 15 14 14 14 5 17 18 15 14 15 16 16 15 14 18 18 21 20 18 13 1 2 1 4 6 1 3 4 6 6 6 7
16 16 16 16 15 11 9 9 9 10 9 10 11 13 12 11 24 22 25 14 15 15 15 13 13 11 13 13 18 11 9 12 8 5 7 5 2 5 5 5 4 5 7
15 15 14 13 11 9 8 9 10 9 12 12 14 16 17 12 22 27 28 18 16 16 15 14 13 10 9 8 7 7 3 4 5 6 7 4 3 3 4 7 7 9 4
14 14 12 11 9 9 11 11 10 10 14 15 14 18 18 15 20 24 24 17 18 17 13 12 10 8 6 4 7 7 7 6 5 5 4 6 6 6 8 7 7 7 8
13 12 10 10 9 10 10 10 10 12 15 15 18 18 25 17 20 22 19 13 16 12 13 12 16 8 8 9 5 6 6 6 4 8 7 8 10 9 11 6 7 5 6
11 10 9 9 9 10 10 10 11 13 16 17 20 18 19 19 20 25 23 14 12 11 9 8 5 12 11 9 6 6 3 6 5 4 2 4 4 6 6 4 3 5 7
9 10 11 10 8 8 11 10 11 13 15 16 18 16 14 16 24 27 26 21 17 11 8 5 3 8 8 6 4 4 9 7 0 4 4 5 5 8 4 5 5 3 5
9 10 9 10 11 10 11 12 11 13 12 13 12 14 13 12 12 22 19 14 13 6 5 7 6 5 8 6 2 9 9 7 6 5 6 7 6 1 2 7 4 7 7
9 9 8 10 12 12 11 10 11 11 12 12 12 12 12 11 11 9 7 6 9 7 7 4 5 7 6 5 4 5 8 7 7 7 7 6 5 5 7 8 8 9 8
8 8 10 10 13 14 15 12 13 16 13 10 10 11 8 6 3 5 8 5 4 4 4 6 7 8 9 8 9 9 9 9 9 8 7 8 8 9 9 9 9 9 9
10 8 8 8 10 11 12 14 29 27 26 23 18 11 7 9 11 11 6 7 8 5 8 10 10 9 10 10 9 9 10 10 10 8 8 9 9 9 9 9 9 7 7
9 7 8 10 9 10 11 12 13 16 22 20 15 14 10 4 3 2 2 9 11 10 12 11 10 10 10 10 10 10 10 9 9 8 9 9 8 9 8 9 9 8 6
11 16 10 10 11 12 12 12 9 11 11 10 7 6 5 4 4 5 7 4 11 13 12 11 10 10 10 10 10 10 10 10 9 9 10 9 9 9 9 10 7 8 8
11 10 12 12 11 11 11 11 9 11 11 10 8 5 4 5 9 11 12 12 12 12 11 11 11 10 11 10 10 10 10 9 9 10 9 9 8 9 8 8 8 7 7
9 10 11 10 9 9 9 10 10 10 9 9 8 8 5 7 11 11 12 12 12 11 10 11 11 11 11 11 11 10 10 10 11 10 8 9 8 8 9 10 9 8 7
7 6 2 7 9 9 9 10 11 11 11 10 9 9 7 11 11 12 11 11 11 11 11 11 11 11 11 12 11 11 11 11 11 9 9 9 9 9 9 8 8 7 7
4 5 6 8 9 9 9 9 9 9 10 9 9 9 8 11 11 11 12 11 12 12 11 11 11 11 11 12 12 12 11 11 11 10 9 9 9 10 9 8 8 8 7
2 4 7 10 9 8 9 10 10 9 10 11 11 10 11 11 11 11 11 11 12 12 12 12 12 12 12 12 12 12 12 11 10 10 8 9 10 8 8 8 8 8 8
3 6 6 8 8 10 10 11 11 10 11 11 11 11 11 11 11 13 12 11 12 12 11 11 12 16 14 13 12 12 11 11 11 10 11 9 9 7 8 9 9 11 8
6 8 7 8 9 9 9 10 10 11 10 11 10 10 10 10 11 11 11 11 11 11 13 13 13 16 18 19 18 19 16 15 14 12 8 10 13 13 10 8 9 9 12
3 7 7 8 8 9 9 10 10 10 10 10 10 10 10 10 10 10 10 11 11 12 14 12 15 19 19 16 18 14 13 15 14 13 11 12 13 10 9 11 14 9 13
Wind_Direction
324 310 308 304 297 289 284 277 269 265 262 266 263 261 263 270 263 252 243 235 227 221 220 215 218 167 167 202 155 117 99 73 60 178 61 83 135 204 292 317 295 278 279
311 310 306 302 295 288 281 278 278 274 265 264 261 262 259 257 262 248 239 234 228 218 212 179 158 167 155 174 142 120 115 112 114 50 5 163 199 86 266 279 267 300 304
318 312 306 297 291 285 281 277 275 270 266 257 253 255 251 254 254 250 234 235 226 215 183 142 139 164 153 157 133 123 103 82 88 157 131 317 49 74 285 264 265 283 269
316 311 303 298 299 296 292 280 270 260 255 254 247 248 245 249 245 244 220 230 228 136 119 122 135 144 149 146 139 134 129 124 112 102 88 358 232 292 244 305 315 306 321
317 313 307 313 306 300 292 286 277 249 241 239 245 242 238 240 245 246 112 127 114 98 88 83 85 101 93 75 74 46 73 80 94 146 167 180 59 337 324 318 307 356 304
318 311 314 312 309 303 316 316 330 319 246 239 244 242 242 250 105 113 119 105 101 105 104 101 98 88 81 77 69 56 58 6 314 215 80 90 174 300 337 341 338 339 330
316 318 318 317 319 334 339 346 4 34 43 59 63 68 71 88 106 108 102 100 100 99 101 99 93 86 77 79 79 59 54 45 26 31 76 32 15 9 337 318 342 306 281
322 324 323 334 341 348 5 22 32 42 55 59 65 76 80 69 89 98 98 98 95 91 91 91 92 97 93 117 137 161 141 104 52 65 61 49 58 16 308 279 278 283 313
333 331 346 350 353 10 27 33 42 59 63 64 65 67 77 70 81 94 98 95 90 84 79 75 77 77 41 230 156 164 157 142 120 146 137 196 199 239 277 312 18 7 336
344 345 354 358 14 36 39 43 54 63 74 68 72 66 69 68 66 80 90 92 90 86 77 68 59 78 60 20 197 135 100 57 129 175 211 234 222 228 243 299 15 328 340
350 351 7 15 28 45 55 56 67 75 78 77 76 69 67 67 65 70 76 83 87 89 84 70 56 57 52 37 39 42 52 321 193 265 130 61 61 83 29 1 42 338 338
359 12 20 22 38 47 61 64 71 76 80 81 81 76 67 66 69 68 71 72 78 83 89 96 147 112 79 35 62 297 274 281 241 59 56 48 31 30 347 11 12 352 319
16 28 31 38 46 49 62 64 67 67 71 77 79 84 72 69 67 65 71 74 83 120 138 125 123 141 151 111 329 322 28 42 47 47 41 38 30 353 353 17 3 14 356
39 37 40 56 61 57 57 56 65 62 72 71 70 74 77 75 79 87 104 124 148 111 124 161 177 136 92 94 83 51 63 47 37 38 32 26 28 28 34 17 9 4 0
43 52 61 64 67 65 57 55 63 55 60 71 69 73 60 60 23 60 60 77 84 91 186 151 92 65 63 62 65 56 44 36 37 33 25 21 28 29 21 17 22 6 1
44 52 61 68 68 69 70 67 56 62 60 60 61 71 76 62 54 53 24 329 306 281 87 75 66 60 55 50 46 45 42 35 25 23 32 32 26 23 9 15 17 37 6
54 56 66 65 70 78 78 77 78 63 61 58 50 40 40 64 23 21 27 60 37 78 72 64 59 53 51 49 43 42 36 31 19 26 35 32 17 14 15 9 7 12 6
62 67 70 67 65 68 69 68 75 85 89 87 53 60 44 32 11 318 296 338 69 60 60 60 57 52 45 41 44 41 37 23 25 22 33 25 17 8 9 7 9 18 358
68 76 76 76 77 81 84 85 82 87 88 94 99 113 99 53 50 43 53 67 66 64 61 56 50 46 43 39 34 39 43 37 29 25 19 21 9 8 12 5 356 49 12
71 54 79 89 94 97 104 112 121 116 107 93 81 84 97 82 68 62 58 58 58 57 58 56 50 44 38 29 29 29 32 36 33 23 4 3 8 14 19 13 4 6 8
97 90 62 100 84 80 83 71 61 61 62 73 62 42 358 74 71 65 60 53 53 53 52 49 44 40 38 33 23 22 26 32 29 18 16 357 20 17 15 15 5 360 8
31 73 97 101 103 95 91 95 99 100 102 94 87 67 44 71 69 67 63 57 55 49 41 41 44 41 33 32 27 18 18 25 18 10 14 19 15 19 15 8 4 4 357
125 75 77 93 105 114 110 106 105 99 88 80 76 74 71 70 68 65 62 57 55 56 52 45 40 37 32 30 32 28 22 5 4 349 29 27 24 12 9 5 2 1 5
197 138 96 75 83 96 88 83 79 73 82 82 78 76 73 70 69 63 61 60 56 50 49 51 51 44 33 30 28 31 21 9 339 342 48 28 23 17 15 13 8 6 10
55 85 102 97 92 102 109 98 93 87 82 79 77 76 76 74 70 66 62 60 56 55 53 47 43 41 39 35 32 20 1 343 337 332 53 30 32 37 25 18 11 8 20
106 111 113 110 107 104 102 98 91 89 86 82 80 78 75 73 69 68 66 62 60 58 57 48 40 38 39 33 18 358 349 344 343 342 39 42 41 29 23 24 19 26 34